Flag for Canada Weather past 2 weeks in Sault Ste. Marie, Ontario, Canada

Now
36 °F

Clear.


Feels Like: 36 °F
Forecast: 42 / 69 °F
Wind: No wind

Location: Sault Ste Marie

Current Time: May 6, 2015 at 2:38:12 AM

Latest Report: May 6, 2015 at 2:00 AM


Visibility: 15 mi

Pressure: 30.30 "Hg

Humidity: 87%

Dew point: 32 °F

Location of Sault Ste. MarieLocation

Historic Weather in Sault Ste. Marie — Graph

°F

Sault Ste. Marie temperature yesterday

Maximum temperature yesterday: 66 °F (at 5:00 PM)
Minimum temperature yesterday: 36 °F (at 4:00 AM)
Average temperature yesterday: 49 °F

Past Weeks' High & Low Weather Summary

 TemperatureHumidityPressure
High75 °F (May 3, 4:00 PM)100% (Apr 21, 5:00 AM)30.38 "Hg (Apr 21, 5:00 AM)
Low21 °F (Apr 24, 7:00 AM)24% (May 5, 6:00 PM)29.34 "Hg (Apr 21, 10:00 AM)
Average41 °F75%29.96 "Hg
* Reported Apr 21 1:00 AM — May 6 1:00 AM, Sault Ste. Marie, Weather by CustomWeather, © 2015

Note: Actual official high and low records may vary slightly from our data, if they occured in-between our weather recording intervals... More about our weather records

Advertising

Sault Ste. Marie weather history for previous 24 hours

 ConditionsComfort  
Time TempWeatherWind HumidityBarometerVisibility
1:00 AM
Wed, May 6
37 °FClear.No wind81%30.32 "Hg15 mi
12:00 AM37 °FClear.2 mph81%30.32 "Hg15 mi
11:00 PM
Tue, May 5
39 °FClear.No wind75%30.32 "Hg15 mi
10:00 PM45 °FClear.3 mph61%30.31 "Hg15 mi
9:00 PM46 °FSunny.3 mph57%30.30 "Hg15 mi
8:00 PM50 °FSunny.7 mph50%30.28 "Hg15 mi
7:00 PM64 °FPassing clouds.10 mph26%30.28 "Hg15 mi
6:00 PM66 °FSunny.12 mph24%30.29 "Hg15 mi
5:00 PM66 °FSunny.12 mph26%30.29 "Hg15 mi
4:00 PM63 °FPassing clouds.10 mph34%30.32 "Hg15 mi
3:00 PM64 °FPassing clouds.13 mph28%30.33 "Hg15 mi
2:00 PM63 °FPassing clouds.12 mph27%30.34 "Hg15 mi
1:00 PM61 °FPassing clouds.10 mph34%30.36 "Hg15 mi
12:00 PM59 °FPassing clouds.6 mph45%30.37 "Hg15 mi
11:00 AM54 °FPassing clouds.6 mph58%30.38 "Hg15 mi
10:00 AM48 °FPassing clouds.5 mph71%30.38 "Hg15 mi
9:00 AM45 °FPassing clouds.2 mph81%30.37 "Hg15 mi
8:00 AM41 °FPassing clouds.No wind87%30.36 "Hg15 mi
7:00 AM37 °FPassing clouds.3 mph93%30.34 "Hg15 mi
6:00 AM36 °FClear.7 mph93%30.33 "Hg15 mi
5:00 AM36 °FClear.9 mph93%30.32 "Hg15 mi
4:00 AM36 °FClear.7 mph93%30.31 "Hg15 mi
3:00 AM37 °FClear.12 mph87%30.30 "Hg15 mi
2:00 AM37 °FClear.12 mph93%30.29 "Hg15 mi
Weather by CustomWeather, © 2015

See weather overviewHow to use our weather pages